TimeCDT,TemperatureF,Dew PointF,Humidity,Sea Level PressureIn,VisibilityMPH,Wind Direction,Wind SpeedMPH,Gust SpeedMPH,PrecipitationIn,Events,Conditions,WindDirDegrees,DateUTC
12:15 AM,67.3,67.3,100,29.83,10.0,Calm,Calm,-,N/A,,Overcast,0,2013-07-01 05:15:00
12:35 AM,67.5,67.5,100,29.83,10.0,Calm,Calm,-,N/A,,Overcast,0,2013-07-01 05:35:00
12:55 AM,67.6,67.6,100,29.83,10.0,NNW,4.6,-,N/A,,Overcast,340,2013-07-01 05:55:00
1:15 AM,67.8,67.8,100,29.82,10.0,Calm,Calm,-,N/A,,Overcast,0,2013-07-01 06:15:00
1:35 AM,67.6,67.6,100,29.82,10.0,North,3.5,-,N/A,,Overcast,350,2013-07-01 06:35:00
1:55 AM,67.5,67.5,100,29.81,10.0,Calm,Calm,-,N/A,,Mostly Cloudy,0,2013-07-01 06:55:00
2:15 AM,67.3,67.3,100,29.81,10.0,NNW,4.6,-,N/A,,Mostly Cloudy,340,2013-07-01 07:15:00
2:35 AM,67.1,67.1,100,29.81,10.0,North,3.5,-,N/A,,Overcast,350,2013-07-01 07:35:00
2:55 AM,67.1,67.1,100,29.81,10.0,NNW,6.9,-,N/A,,Overcast,340,2013-07-01 07:55:00
3:15 AM,66.9,66.9,100,29.81,10.0,NNW,3.5,-,N/A,,Overcast,340,2013-07-01 08:15:00
3:35 AM,66.7,66.7,100,29.81,10.0,NNW,5.8,-,N/A,,Overcast,340,2013-07-01 08:35:00
3:55 AM,66.7,66.7,100,29.81,10.0,NNW,3.5,-,N/A,,Mostly Cloudy,340,2013-07-01 08:55:00
4:15 AM,66.7,66.7,100,29.82,10.0,NNW,5.8,-,N/A,,Mostly Cloudy,340,2013-07-01 09:15:00
4:35 AM,66.9,66.9,100,29.82,10.0,Calm,Calm,-,N/A,,Overcast,0,2013-07-01 09:35:00
4:55 AM,67.1,67.1,100,29.82,10.0,NNW,5.8,-,N/A,,Overcast,340,2013-07-01 09:55:00
5:15 AM,67.1,67.1,100,29.83,10.0,North,5.8,-,N/A,,Overcast,350,2013-07-01 10:15:00
5:35 AM,67.1,67.1,100,29.83,10.0,North,5.8,-,N/A,,Overcast,350,2013-07-01 10:35:00
5:55 AM,67.1,67.1,100,29.84,10.0,North,6.9,-,N/A,,Overcast,360,2013-07-01 10:55:00
6:15 AM,67.1,67.1,100,29.84,10.0,North,4.6,-,N/A,,Overcast,350,2013-07-01 11:15:00
6:35 AM,67.1,67.1,100,29.84,10.0,NNW,5.8,-,N/A,,Overcast,340,2013-07-01 11:35:00
6:55 AM,67.3,67.3,100,29.85,10.0,NNW,5.8,-,N/A,,Overcast,340,2013-07-01 11:55:00
7:15 AM,67.3,67.3,100,29.85,10.0,North,4.6,-,N/A,Thunderstorm,Overcast,350,2013-07-01 12:15:00
7:35 AM,67.5,66.7,98,29.85,10.0,North,8.1,-,N/A,,Overcast,350,2013-07-01 12:35:00
7:55 AM,67.6,66.6,96,29.86,10.0,North,4.6,-,N/A,,Overcast,360,2013-07-01 12:55:00
8:15 AM,68.0,66.6,95,29.86,10.0,North,6.9,-,N/A,,Overcast,350,2013-07-01 13:15:00
8:35 AM,68.0,66.4,95,29.86,10.0,North,4.6,-,N/A,,Overcast,350,2013-07-01 13:35:00
8:55 AM,68.0,66.2,94,29.87,10.0,North,9.2,-,N/A,,Overcast,360,2013-07-01 13:55:00
9:15 AM,68.0,66.2,94,29.87,10.0,North,6.9,-,N/A,,Overcast,350,2013-07-01 14:15:00
9:35 AM,68.2,66.4,94,29.87,10.0,North,6.9,-,N/A,,Overcast,350,2013-07-01 14:35:00
9:55 AM,68.0,66.2,94,29.87,10.0,NNW,6.9,-,N/A,Thunderstorm,Unknown,340,2013-07-01 14:55:00
10:15 AM,66.9,66.9,100,29.87,7.0,NNW,10.4,-,0.01,,Drizzle,340,2013-07-01 15:15:00
10:35 AM,66.6,66.4,99,29.87,10.0,North,8.1,-,0.01,,Overcast,350,2013-07-01 15:35:00
10:55 AM,67.8,65.8,93,29.88,10.0,North,10.4,-,0.01,,Overcast,350,2013-07-01 15:55:00
11:15 AM,68.9,64.9,87,29.88,10.0,North,5.8,-,N/A,,Overcast,10,2013-07-01 16:15:00
11:35 AM,68.5,64.8,88,29.88,10.0,North,5.8,-,N/A,,Overcast,10,2013-07-01 16:35:00
11:55 AM,69.1,65.5,88,29.88,10.0,North,3.5,-,N/A,,Overcast,350,2013-07-01 16:55:00
12:15 PM,69.3,64.9,86,29.88,10.0,North,5.8,-,N/A,,Overcast,350,2013-07-01 17:15:00
12:35 PM,70.7,64.8,81,29.87,10.0,North,6.9,-,N/A,,Overcast,350,2013-07-01 17:35:00
12:55 PM,71.6,65.1,80,29.87,10.0,North,6.9,-,N/A,,Overcast,360,2013-07-01 17:55:00
1:15 PM,72.1,63.0,73,29.87,10.0,North,12.7,-,N/A,,Overcast,350,2013-07-01 18:15:00
1:35 PM,72.9,63.7,73,29.87,10.0,NNW,12.7,-,N/A,,Overcast,340,2013-07-01 18:35:00
1:55 PM,73.2,63.7,72,29.87,10.0,NNW,13.8,17.3,N/A,,Mostly Cloudy,340,2013-07-01 18:55:00
2:15 PM,70.0,63.0,78,29.88,10.0,NNW,6.9,-,N/A,,Overcast,330,2013-07-01 19:15:00
2:35 PM,68.0,66.4,95,29.88,4.0,NNW,9.2,-,N/A,,Overcast,330,2013-07-01 19:35:00
2:55 PM,68.0,67.6,99,29.88,3.0,NNW,9.2,-,N/A,Rain,Rain,330,2013-07-01 19:55:00
3:15 PM,68.0,67.1,97,29.88,10.0,NNW,6.9,-,N/A,,Overcast,340,2013-07-01 20:15:00
3:35 PM,68.0,66.7,96,29.88,10.0,North,9.2,18.4,N/A,,Overcast,350,2013-07-01 20:35:00
3:55 PM,68.7,65.5,89,29.87,10.0,NNW,10.4,-,N/A,,Overcast,330,2013-07-01 20:55:00
4:15 PM,69.6,63.1,80,29.86,10.0,North,11.5,-,N/A,,Overcast,350,2013-07-01 21:15:00
4:35 PM,70.0,62.6,77,29.86,10.0,North,9.2,17.3,N/A,,Overcast,360,2013-07-01 21:35:00
4:55 PM,70.9,62.8,75,29.87,10.0,North,9.2,19.6,N/A,,Overcast,350,2013-07-01 21:55:00
5:15 PM,71.2,62.8,75,29.88,10.0,NNW,13.8,19.6,N/A,,Overcast,340,2013-07-01 22:15:00
5:35 PM,70.3,62.6,76,29.88,10.0,North,9.2,-,N/A,,Overcast,350,2013-07-01 22:35:00
5:55 PM,69.4,62.2,78,29.89,10.0,North,9.2,-,N/A,,Overcast,350,2013-07-01 22:55:00
6:15 PM,69.3,62.2,78,29.89,10.0,NNW,4.6,-,N/A,,Overcast,340,2013-07-01 23:15:00
6:35 PM,68.9,62.6,80,29.90,10.0,NNW,6.9,-,N/A,,Overcast,340,2013-07-01 23:35:00
6:55 PM,68.9,62.6,80,29.90,10.0,NNW,5.8,-,N/A,,Overcast,340,2013-07-01 23:55:00
7:15 PM,68.9,63.0,81,29.91,10.0,NNW,3.5,-,N/A,,Overcast,330,2013-07-02 00:15:00
7:35 PM,68.5,63.1,83,29.91,10.0,Calm,Calm,-,N/A,,Overcast,0,2013-07-02 00:35:00
7:55 PM,68.2,63.5,85,29.91,10.0,Calm,Calm,-,N/A,,Overcast,0,2013-07-02 00:55:00
8:15 PM,67.8,64.4,89,29.91,10.0,Calm,Calm,-,N/A,,Mostly Cloudy,0,2013-07-02 01:15:00
8:35 PM,67.3,67.1,99,29.90,10.0,WNW,3.5,-,N/A,,Mostly Cloudy,300,2013-07-02 01:35:00
8:55 PM,67.1,67.1,100,29.90,10.0,NW,4.6,-,N/A,,Overcast,310,2013-07-02 01:55:00
9:15 PM,66.7,66.7,100,29.90,10.0,NW,3.5,-,N/A,,Overcast,310,2013-07-02 02:15:00
9:35 PM,66.2,66.2,100,29.90,10.0,NW,3.5,-,N/A,,Overcast,310,2013-07-02 02:35:00
9:55 PM,65.8,65.8,100,29.90,10.0,WNW,4.6,-,N/A,,Scattered Clouds,290,2013-07-02 02:55:00
10:15 PM,65.8,65.8,100,29.90,10.0,West,3.5,-,N/A,,Clear,270,2013-07-02 03:15:00
10:35 PM,65.5,65.5,100,29.91,10.0,Calm,Calm,-,N/A,,Clear,0,2013-07-02 03:35:00
10:55 PM,65.3,65.3,100,29.90,10.0,Calm,Calm,-,N/A,,Clear,0,2013-07-02 03:55:00
11:15 PM,64.9,64.9,100,29.90,10.0,Calm,Calm,-,N/A,,Clear,0,2013-07-02 04:15:00
11:35 PM,65.3,65.3,100,29.90,10.0,Calm,Calm,-,N/A,,Mostly Cloudy,0,2013-07-02 04:35:00
11:55 PM,65.7,65.7,100,29.90,10.0,Calm,Calm,-,N/A,,Overcast,0,2013-07-02 04:55:00